Previsão horária em Allepuz

Hoje, 25 Junho, Sexta-feira

Tempo Temperatura Precipitação Vento Pressão Humidade
00:00 +12°C° 0 mm 1 m/s 641 mmHg 74%
01:00 +11°C° 0 mm 1 m/s 641 mmHg 75%
02:00 +11°C° 0 mm 1 m/s 640 mmHg 76%
03:00 +11°C° 0 mm 1 m/s 640 mmHg 77%
04:00 +12°C° 0 mm 1 m/s 640 mmHg 73%
05:00 +12°C° 0 mm 1 m/s 641 mmHg 70%
06:00 +13°C° 0 mm 1 m/s 641 mmHg 66%
07:00 +15°C° 0 mm 1 m/s 641 mmHg 60%
08:00 +17°C° 0 mm 2 m/s 642 mmHg 53%
09:00 +19°C° 0 mm 2 m/s 642 mmHg 47%
10:00 +20°C° 0 mm 2 m/s 642 mmHg 43%
11:00 +21°C° 0 mm 3 m/s 643 mmHg 40%
12:00 +24°C° 0 mm 3 m/s 643 mmHg 36%
13:00 +23°C° 0 mm 4 m/s 642 mmHg 35%
14:00 +23°C° 0 mm 4 m/s 642 mmHg 34%
15:00 +25°C° 0 mm 4 m/s 642 mmHg 33%
16:00 +23°C° 0 mm 4 m/s 641 mmHg 37%
17:00 +22°C° 0 mm 4 m/s 641 mmHg 41%
18:00 +21°C° 0 mm 4 m/s 640 mmHg 45%
19:00 +19°C° 0 mm 3 m/s 640 mmHg 53%
20:00 +17°C° 0 mm 3 m/s 640 mmHg 60%
21:00 +15°C° 0 mm 2 m/s 640 mmHg 68%
22:00 +15°C° 0 mm 2 m/s 640 mmHg 69%
23:00 +15°C° 0 mm 2 m/s 640 mmHg 71%

Amanhã, 26 Junho, Sábado

Tempo Temperatura Precipitação Vento Pressão Humidade
00:00 +14°C° 0 mm 2 m/s 639 mmHg 72%
01:00 +14°C° 0 mm 2 m/s 639 mmHg 72%
02:00 +14°C° 0 mm 2 m/s 639 mmHg 72%
03:00 +14°C° 0 mm 2 m/s 639 mmHg 73%
04:00 +15°C° 0 mm 2 m/s 639 mmHg 70%
05:00 +15°C° 0 mm 2 m/s 639 mmHg 67%
06:00 +16°C° 0 mm 2 m/s 640 mmHg 64%
07:00 +18°C° 0 mm 3 m/s 640 mmHg 56%
08:00 +20°C° 0 mm 3 m/s 640 mmHg 48%
09:00 +22°C° 0 mm 4 m/s 641 mmHg 40%
10:00 +25°C° 0 mm 5 m/s 641 mmHg 36%
11:00 +26°C° 0 mm 6 m/s 641 mmHg 32%
12:00 +27°C° 0 mm 6 m/s 641 mmHg 28%
13:00 +27°C° 0 mm 7 m/s 641 mmHg 27%
14:00 +27°C° 0 mm 7 m/s 640 mmHg 26%
15:00 +28°C° 0 mm 8 m/s 640 mmHg 26%
16:00 +26°C° 0 mm 7 m/s 640 mmHg 31%
17:00 +24°C° 0 mm 6 m/s 639 mmHg 36%
18:00 +23°C° 0 mm 6 m/s 639 mmHg 40%
19:00 +21°C° 0 mm 5 m/s 639 mmHg 48%
20:00 +19°C° 0 mm 4 m/s 638 mmHg 55%
21:00 +17°C° 0 mm 4 m/s 638 mmHg 63%
22:00 +17°C° 0 mm 3 m/s 638 mmHg 62%
23:00 +16°C° 0 mm 3 m/s 638 mmHg 61%

Depois de amanhã, 27 Junho, Domingo

Tempo Temperatura Precipitação Vento Pressão Humidade
00:00 +16°C° 0 mm 3 m/s 638 mmHg 60%
01:00 +16°C° 0 mm 3 m/s 637 mmHg 58%
02:00 +16°C° 0 mm 3 m/s 637 mmHg 57%
03:00 +14°C° 0 mm 3 m/s 637 mmHg 55%
04:00 +16°C° 0 mm 2 m/s 637 mmHg 54%
05:00 +17°C° 0 mm 2 m/s 637 mmHg 53%
06:00 +17°C° 0 mm 2 m/s 637 mmHg 52%
07:00 +19°C° 0 mm 3 m/s 638 mmHg 45%
08:00 +21°C° 0 mm 4 m/s 638 mmHg 38%
09:00 +23°C° 0 mm 5 m/s 639 mmHg 30%
10:00 +24°C° 0 mm 6 m/s 639 mmHg 28%
11:00 +26°C° 0 mm 7 m/s 639 mmHg 25%
12:00 +26°C° 0 mm 8 m/s 639 mmHg 23%
13:00 +27°C° 0 mm 8 m/s 639 mmHg 22%
14:00 +27°C° 0 mm 9 m/s 639 mmHg 21%
15:00 +27°C° 0 mm 9 m/s 638 mmHg 21%
16:00 +26°C° 0 mm 8 m/s 638 mmHg 22%
17:00 +24°C° 0 mm 7 m/s 638 mmHg 23%
18:00 +24°C° 0 mm 7 m/s 638 mmHg 25%
19:00 +21°C° 0 mm 5 m/s 637 mmHg 31%
20:00 +19°C° 0 mm 3 m/s 637 mmHg 38%
21:00 +17°C° 0 mm 2 m/s 637 mmHg 45%
22:00 +16°C° 0 mm 1 m/s 637 mmHg 49%
23:00 +15°C° 0 mm 1 m/s 636 mmHg 52%

28 Junho, Segunda-feira

Tempo Temperatura Precipitação Vento Pressão Humidade
00:00 +14°C° 0 mm 1 m/s 636 mmHg 56%
01:00 +14°C° 0 mm 1 m/s 636 mmHg 55%
02:00 +13°C° 0 mm 1 m/s 636 mmHg 55%
03:00 +13°C° 0 mm 2 m/s 636 mmHg 54%
04:00 +13°C° 0 mm 2 m/s 636 mmHg 52%
05:00 +13°C° 0 mm 1 m/s 636 mmHg 50%
06:00 +13°C° 0 mm 1 m/s 636 mmHg 49%
07:00 +14°C° 0 mm 2 m/s 637 mmHg 44%
08:00 +16°C° 0 mm 2 m/s 638 mmHg 40%
09:00 +17°C° 0 mm 3 m/s 638 mmHg 36%
10:00 +18°C° 0 mm 3 m/s 639 mmHg 33%
11:00 +19°C° 0 mm 3 m/s 639 mmHg 31%
12:00 +20°C° 0 mm 3 m/s 639 mmHg 29%
13:00 +21°C° 0 mm 3 m/s 639 mmHg 27%
14:00 +22°C° 0 mm 4 m/s 639 mmHg 26%
15:00 +23°C° 0 mm 4 m/s 639 mmHg 24%
16:00 +22°C° 0 mm 4 m/s 639 mmHg 28%
17:00 +21°C° 0 mm 4 m/s 639 mmHg 31%
18:00 +20°C° 0 mm 4 m/s 639 mmHg 34%
19:00 +18°C° 0 mm 3 m/s 639 mmHg 40%
20:00 +17°C° 0 mm 3 m/s 639 mmHg 46%
21:00 +15°C° 0 mm 2 m/s 639 mmHg 52%
22:00 +14°C° 0 mm 2 m/s 639 mmHg 55%
23:00 +13°C° 0 mm 2 m/s 639 mmHg 59%

29 Junho, Terça-feira

Tempo Temperatura Precipitação Vento Pressão Humidade
00:00 +12°C° 0 mm 2 m/s 639 mmHg 63%
01:00 +12°C° 0 mm 2 m/s 638 mmHg 66%
02:00 +11°C° 0 mm 1 m/s 638 mmHg 69%
03:00 +10°C° 0 mm 1 m/s 638 mmHg 73%
04:00 +11°C° 0 mm 1 m/s 638 mmHg 70%
05:00 +12°C° 0 mm 1 m/s 639 mmHg 67%
06:00 +12°C° 0 mm 1 m/s 639 mmHg 64%
07:00 +14°C° 0 mm 1 m/s 639 mmHg 58%
08:00 +16°C° 0 mm 1 m/s 640 mmHg 51%
09:00 +17°C° 0 mm 2 m/s 640 mmHg 45%
10:00 +19°C° 0 mm 2 m/s 641 mmHg 41%
11:00 +20°C° 0 mm 3 m/s 641 mmHg 37%
12:00 +22°C° 0 mm 3 m/s 641 mmHg 33%
13:00 +22°C° 0 mm 4 m/s 641 mmHg 34%
14:00 +22°C° 0 mm 4 m/s 641 mmHg 34%
15:00 +22°C° 0 mm 5 m/s 640 mmHg 34%
16:00 +21°C° 0 mm 5 m/s 640 mmHg 38%
17:00 +20°C° 0 mm 4 m/s 640 mmHg 42%
18:00 +19°C° 0 mm 4 m/s 640 mmHg 46%
19:00 +18°C° 0 mm 4 m/s 640 mmHg 51%
20:00 +16°C° 0 mm 3 m/s 640 mmHg 56%
21:00 +14°C° 0 mm 3 m/s 640 mmHg 61%
22:00 +14°C° 0 mm 2 m/s 640 mmHg 65%
23:00 +13°C° 0 mm 2 m/s 639 mmHg 68%

30 Junho, Quarta-feira

Tempo Temperatura Precipitação Vento Pressão Humidade
00:00 +12°C° 0 mm 1 m/s 639 mmHg 72%
01:00 +12°C° 0.1 mm 1 m/s 639 mmHg 75%
02:00 +11°C° 0.1 mm 1 m/s 639 mmHg 78%
03:00 +11°C° 0.1 mm 1 m/s 638 mmHg 81%
04:00 +11°C° 0 mm 1 m/s 638 mmHg 78%
05:00 +11°C° 0 mm 0 m/s 639 mmHg 74%
06:00 +11°C° 0 mm 0 m/s 639 mmHg 70%
07:00 +14°C° 0 mm 1 m/s 639 mmHg 65%
08:00 +16°C° 0 mm 1 m/s 640 mmHg 60%
09:00 +18°C° 0 mm 1 m/s 640 mmHg 54%
10:00 +19°C° 0 mm 2 m/s 641 mmHg 50%
11:00 +20°C° 0 mm 2 m/s 641 mmHg 46%
12:00 +22°C° 0 mm 3 m/s 641 mmHg 41%
13:00 +22°C° 0 mm 3 m/s 641 mmHg 43%
14:00 +21°C° 0 mm 4 m/s 641 mmHg 45%
15:00 +21°C° 0 mm 4 m/s 641 mmHg 47%
16:00 +21°C° 0.1 mm 4 m/s 640 mmHg 48%
17:00 +20°C° 0.1 mm 4 m/s 640 mmHg 50%
18:00 +19°C° 0.1 mm 3 m/s 640 mmHg 52%
19:00 +18°C° 0 mm 3 m/s 640 mmHg 58%
20:00 +16°C° 0 mm 2 m/s 640 mmHg 63%
21:00 +15°C° 0 mm 2 m/s 640 mmHg 69%
22:00 +14°C° 0 mm 2 m/s 640 mmHg 70%
23:00 +14°C° 0 mm 1 m/s 640 mmHg 71%
Mostrar mais